This is the latest recevied weather packets stored in our database for station/object M3YFM-13. If no packets are shown the sender has not sent any weather packets the latest 1 day(s).
| Time | Temp. | Humidity | Pressure | Rain* | Wind** | Luminosity | Snow |
|---|---|---|---|---|---|---|---|
| 1777991614 | 17.22° C | 45% | - | 0 mm | 1.34 m/s, 25° | - | - |
| 1777991313 | 16.11° C | 45% | - | 0 mm | 0.89 m/s, 94° | - | - |
| 1777990713 | 16.11° C | 45% | - | 0 mm | 1.34 m/s, 62° | - | - |
| 1777990413 | 16.67° C | 45% | - | 0 mm | 1.79 m/s, 18° | - | - |
| 1777990112 | 16.67° C | 45% | - | 0 mm | 1.34 m/s, 27° | - | - |
| 1777989812 | 16.67° C | 45% | - | 0 mm | 1.34 m/s, 93° | - | - |
| 1777989512 | 16.67° C | 44% | - | 0 mm | 0.89 m/s, 48° | - | - |
| 1777989212 | 16.67° C | 45% | - | 0 mm | 0.89 m/s, 55° | - | - |
| 1777988911 | 16.67° C | 44% | - | 0 mm | 1.34 m/s, 98° | - | - |
| 1777988611 | 16.67° C | 44% | - | 0 mm | 1.34 m/s, 34° | - | - |
| 1777988311 | 16.67° C | 45% | - | 0 mm | 1.34 m/s, 39° | - | - |
| 1777988010 | 16.67° C | 44% | - | 0 mm | 0.89 m/s, 30° | - | - |
| 1777987710 | 16.67° C | 44% | - | 0 mm | 0.89 m/s, 60° | - | - |
| 1777987410 | 16.67° C | 44% | - | 0 mm | 0.89 m/s, 35° | - | - |
| 1777987109 | 17.22° C | 44% | - | 0 mm | 1.34 m/s, 69° | - | - |
| 1777986809 | 17.22° C | 44% | - | 0 mm | 0.89 m/s, 18° | - | - |
| 1777986509 | 16.11° C | 45% | - | 0 mm | 0.89 m/s, 41° | - | - |
| 1777986209 | 16.67° C | 45% | - | 0 mm | 1.34 m/s, 27° | - | - |
| 1777985908 | 16.67° C | 45% | - | 0 mm | 1.79 m/s, 94° | - | - |
| 1777985608 | 17.22° C | 44% | - | 0 mm | 1.34 m/s, 34° | - | - |
| 1777985308 | 17.22° C | 45% | - | 0 mm | 0.89 m/s, 58° | - | - |
| 1777984707 | 17.22° C | 44% | - | 0 mm | 1.34 m/s, 90° | - | - |
| 1777984407 | 17.22° C | 44% | - | 0 mm | 0.89 m/s, 158° | - | - |
| 1777984107 | 17.78° C | 42% | - | 0 mm | 1.79 m/s, 21° | - | - |
| 1777983806 | 17.22° C | 44% | - | 0 mm | 0.89 m/s, 69° | - | - |
* Rain since midnight (hover to see other rain measurements)
** Current wind speed in m/s (hover to see current wind gust speed)